Location: ???????
(55.3754°N, 39.3545°E)
Time: 18:17:15
(UTC+00:00)

Cosmos 1656 Rocket - Pass Details

Date: 14 April 2026
Orbit: 794 x 843 km, 71.1° (Epoch: 16 May)

Event Time Altitude Azimuth Distance (km) Brightness Sun altitude
Rises 18:54:15 0° 325° (NW) 3,314 8.5 -18.0°
Reaches altitude 10° 18:56:40 10° 323° (NW) 2,384 7.3 -18.2°
Maximum altitude 19:02:03 66° 242° (WSW) 881 3.8 -18.7°
Enters shadow 19:04:37 31° 170° (S) 1,375 4.3 -18.9°
